Temp
-7 -7 -8 -7 -7 -7 -7 -7 -6 -7 -6 -7 -6 -6 -6 -6 -5 -5 -5 -5 -6 -6 -6 -5 -5 -6 -6 -6 -5 -5 -5 -6 -6 -6 -6 -6 -6 -5 -5 -5 -5 -5 -6 -6
-7 -8 -7 -7 -7 -7 -7 -7 -6 -6 -6 -6 -6 -6 -6 -6 -7 -6 -6 -6 -5 -6 -6 -6 -6 -5 -5 -6 -6 -5 -5 -5 -6 -6 -6 -6 -6 -5 -5 -4 -5 -5 -6 -6
-8 -7 -7 -7 -7 -7 -7 -6 -6 -6 -6 -6 -6 -6 -6 -6 -7 -7 -6 -6 -6 -5 -5 -6 -6 -6 -5 -5 -5 -6 -6 -6 -5 -6 -6 -6 -6 -5 -4 -6 -6 -6 -6 -7
-8 -8 -8 -7 -6 -7 -7 -6 -6 -6 -6 -6 -6 -5 -5 -4 -4 -4 -6 -6 -6 -6 -5 -5 -5 -6 -6 -5 -5 -6 -6 -6 -6 -6 -6 -5 -5 -5 -6 -6 -7 -6 -6 -6
-8 -8 -8 -7 -7 -7 -6 -6 -5 -5 -5 -6 -5 -5 -5 -6 -6 -5 -6 -6 -6 -6 -6 -6 -5 -5 -6 -6 -5 -5 -5 -6 -6 -6 -5 -5 -5 -6 -6 -7 -7 -7 -6 -7
-7 -7 -6 -6 -6 -6 -6 -5 -5 -5 -5 -6 -5 -5 -5 -6 -6 -7 -7 -7 -6 -6 -6 -6 -5 -5 -5 -6 -5 -5 -5 -5 -6 -5 -5 -6 -5 -6 -6 -7 -6 -7 -6 -6
-7 -7 -7 -6 -6 -7 -7 -6 -5 -5 -5 -4 -4 -5 -6 -7 -7 -7 -7 -6 -6 -6 -6 -6 -6 -5 -6 -5 -6 -6 -5 -5 -5 -6 -6 -6 -6 -6 -6 -6 -6 -6 -6 -7
-6 -7 -7 -8 -8 -7 -7 -7 -6 -6 -5 -6 -5 -6 -5 -6 -8 -7 -6 -6 -6 -6 -6 -6 -6 -6 -6 -6 -6 -6 -6 -5 -5 -6 -6 -6 -6 -7 -6 -6 -6 -6 -6 -6
-7 -7 -7 -7 -7 -6 -7 -7 -7 -6 -5 -5 -5 -5 -6 -7 -7 -7 -6 -6 -6 -6 -6 -6 -6 -6 -6 -6 -6 -6 -6 -6 -5 -6 -6 -6 -6 -6 -6 -6 -6 -6 -6 -6
-8 -7 -7 -7 -7 -7 -7 -7 -7 -6 -6 -6 -5 -5 -6 -7 -6 -7 -6 -6 -6 -6 -6 -6 -6 -6 -6 -6 -6 -5 -6 -6 -6 -6 -6 -6 -6 -7 -7 -7 -7 -7 -6 -6
-7 -8 -7 -7 -7 -7 -7 -8 -7 -7 -6 -6 -5 -6 -6 -6 -6 -6 -7 -7 -7 -7 -7 -5 -5 -6 -6 -6 -6 -6 -6 -6 -6 -6 -6 -6 -6 -7 -7 -7 -7 -7 -7 -6
-8 -8 -8 -8 -7 -7 -7 -6 -7 -7 -7 -6 -6 -7 -8 -7 -7 -7 -6 -7 -7 -7 -7 -6 -5 -6 -8 -7 -7 -7 -7 -7 -6 -6 -7 -7 -7 -7 -7 -7 -7 -7 -7 -7
-6 -7 -7 -8 -7 -7 -8 -8 -8 -8 -7 -7 -7 -7 -8 -8 -8 -6 -6 -7 -7 -7 -7 -7 -7 -7 -7 -8 -7 -7 -7 -7 -7 -7 -7 -7 -7 -7 -7 -7 -7 -7 -7 -7
-7 -6 -7 -8 -8 -8 -8 -8 -8 -7 -8 -7 -7 -7 -8 -7 -9 -7 -5 -7 -7 -7 -7 -7 -8 -8 -8 -7 -6 -7 -7 -7 -7 -7 -7 -7 -7 -7 -7 -7 -7 -7 -8 -8
-6 -7 -7 -7 -6 -7 -7 -7 -6 -6 -7 -7 -7 -7 -8 -8 -9 -8 -6 -7 -7 -7 -7 -7 -8 -8 -7 -7 -7 -8 -7 -7 -7 -7 -7 -7 -8 -8 -8 -8 -8 -8 -8 -8
-6 -7 -7 -6 -7 -7 -7 -6 -6 -7 -7 -6 -7 -6 -7 -8 -9 -7 -6 -7 -7 -6 -7 -7 -8 -8 -8 -8 -8 -8 -8 -8 -8 -8 -9 -8 -9 -8 -9 -9 -8 -8 -8 -8
-7 -7 -7 -6 -7 -7 -6 -8 -8 -8 -8 -8 -8 -8 -9 -9 -8 -8 -7 -6 -7 -7 -6 -7 -7 -8 -9 -8 -8 -8 -8 -8 -8 -8 -8 -8 -7 -9 -9 -8 -8 -8 -8 -8
-7 -7 -6 -6 -7 -6 -8 -9 -7 -7 -7 -7 -7 -7 -7 -8 -8 -8 -9 -8 -6 -7 -7 -7 -7 -6 -7 -8 -8 -8 -8 -8 -8 -9 -8 -8 -8 -8 -8 -8 -8 -8 -8 -8
-7 -7 -6 -6 -7 -7 -7 -9 -8 -6 -7 -7 -7 -7 -7 -7 -8 -10 -9 -8 -5 -7 -7 -7 -8 -7 -6 -5 -7 -8 -8 -8 -8 -9 -8 -8 -8 -8 -8 -8 -8 -7 -8 -9
-7 -7 -7 -7 -7 -7 -9 -8 -6 -7 -8 -7 -7 -7 -6 -7 -8 -9 -8 -8 -8 -9 -8 -8 -7 -7 -7 -7 -6 -6 -7 -8 -8 -9 -9 -9 -8 -9 -9 -10 -9 -9 -10 -10
-6 -6 -7 -7 -7 -7 -8 -7 -6 -7 -8 -7 -6 -7 -7 -8 -9 -9 -8 -8 -8 -9 -8 -8 -9 -7 -8 -8 -8 -8 -8 -7 -8 -9 -9 -9 -10 -9 -9 -9 -10 -10 -10 -10
-7 -7 -7 -7 -7 -8 -7 -7 -7 -6 -6 -7 -7 -7 -7 -7 -8 -9 -9 -9 -8 -8 -9 -8 -7 -7 -9 -9 -8 -9 -10 -10 -9 -9 -10 -9 -9 -9 -10 -10 -10 -10 -10 -10
-7 -7 -7 -7 -8 -7 -7 -7 -7 -7 -7 -7 -7 -7 -7 -7 -7 -8 -9 -9 -9 -8 -8 -8 -8 -9 -9 -9 -8 -11 -6 -9 -11 -10 -10 -11 -10 -10 -10 -10 -10 -10 -9 -9
-7 -7 -7 -7 -8 -8 -7 -7 -7 -7 -7 -7 -8 -8 -8 -8 -8 -8 -8 -8 -9 -9 -9 -9 -8 -10 -10 -10 -10 -11 -10 -10 -11 -10 -11 -12 -11 -10 -10 -10 -10 -10 -10 -10
-8 -8 -7 -7 -7 -8 -8 -7 -7 -8 -8 -8 -8 -8 -8 -8 -8 -8 -8 -8 -8 -9 -9 -9 -9 -8 -9 -11 -11 -11 -12 -11 -12 -11 -11 -11 -11 -10 -10 -10 -10 -10 -10 -10
-7 -7 -7 -7 -7 -8 -7 -7 -8 -8 -8 -8 -8 -8 -9 -8 -8 -9 -9 -9 -9 -9 -9 -10 -10 -10 -9 -9 -10 -11 -11 -11 -11 -12 -12 -12 -11 -11 -11 -11 -11 -11 -10 -10
Height
5908 5912 5915 5918 5920 5918 5914 5920 5922 5917 5918 5917 5920 5919 5909 5909 5912 5914 5912 5912 5910 5909 5908 5908 5907 5907 5908 5908 5908 5909 5909 5912 5912 5913 5913 5913 5914 5916 5916 5918 5919 5919 5919 5919
5910 5913 5916 5915 5917 5916 5914 5917 5920 5917 5918 5916 5921 5923 5916 5910 5914 5911 5911 5912 5912 5912 5911 5910 5909 5909 5908 5908 5908 5909 5910 5911 5911 5911 5911 5913 5914 5914 5915 5918 5916 5916 5918 5918
5910 5915 5915 5913 5911 5912 5914 5917 5920 5917 5914 5914 5922 5916 5912 5892 5904 5912 5912 5914 5914 5914 5913 5911 5910 5910 5909 5908 5907 5907 5909 5910 5910 5910 5911 5912 5913 5912 5915 5912 5900 5911 5914 5915
5911 5912 5911 5909 5909 5912 5914 5916 5915 5916 5917 5916 5920 5916 5912 5909 5907 5910 5912 5914 5915 5915 5914 5913 5912 5910 5909 5909 5908 5907 5908 5909 5909 5909 5910 5909 5909 5910 5915 5914 5909 5912 5915 5911
5911 5911 5909 5909 5911 5908 5908 5909 5909 5912 5912 5914 5918 5920 5905 5908 5908 5907 5908 5913 5914 5914 5915 5914 5912 5911 5910 5909 5908 5908 5908 5909 5910 5910 5910 5908 5909 5910 5911 5909 5909 5909 5910 5908
5908 5908 5907 5906 5906 5907 5908 5910 5910 5911 5911 5913 5915 5918 5904 5909 5909 5910 5910 5910 5912 5913 5915 5913 5913 5911 5910 5908 5908 5908 5908 5909 5910 5910 5909 5908 5909 5913 5909 5909 5905 5909 5910 5907
5910 5908 5907 5905 5906 5908 5910 5912 5914 5916 5916 5917 5914 5909 5903 5905 5909 5909 5906 5910 5910 5911 5912 5912 5912 5911 5909 5908 5908 5907 5908 5909 5911 5911 5910 5908 5908 5912 5914 5912 5911 5912 5910 5906
5916 5913 5909 5906 5906 5905 5907 5910 5913 5913 5914 5912 5911 5913 5904 5909 5905 5906 5907 5908 5906 5907 5907 5909 5909 5909 5908 5907 5908 5907 5907 5908 5909 5911 5911 5910 5909 5907 5908 5910 5910 5909 5909 5910
5914 5914 5908 5905 5904 5905 5906 5908 5906 5908 5911 5912 5916 5915 5907 5906 5904 5901 5902 5906 5904 5903 5902 5904 5905 5905 5906 5905 5905 5906 5906 5906 5907 5908 5909 5909 5909 5910 5910 5909 5909 5910 5912 5911
5908 5911 5912 5906 5904 5904 5904 5904 5907 5910 5910 5910 5911 5910 5903 5902 5900 5898 5896 5901 5900 5898 5897 5897 5899 5901 5902 5902 5902 5902 5903 5903 5903 5904 5906 5906 5907 5908 5908 5909 5909 5909 5910 5911
5903 5907 5909 5909 5909 5908 5906 5904 5905 5907 5909 5909 5911 5908 5903 5899 5897 5896 5893 5896 5896 5894 5893 5890 5883 5892 5896 5897 5898 5898 5899 5900 5900 5901 5902 5903 5903 5904 5905 5906 5906 5907 5908 5909
5900 5900 5901 5904 5905 5902 5901 5900 5900 5904 5906 5907 5907 5899 5891 5899 5890 5889 5889 5891 5889 5891 5890 5878 5862 5875 5885 5888 5892 5893 5895 5897 5898 5898 5899 5900 5900 5900 5900 5902 5903 5903 5904 5906
5897 5897 5897 5902 5906 5901 5899 5900 5899 5900 5901 5902 5903 5899 5891 5891 5886 5885 5883 5883 5885 5887 5888 5886 5876 5878 5873 5862 5876 5892 5893 5891 5893 5894 5894 5896 5896 5896 5897 5898 5900 5901 5902 5902
5893 5894 5894 5896 5898 5898 5897 5896 5894 5894 5895 5898 5900 5897 5892 5881 5883 5878 5880 5878 5880 5882 5883 5883 5879 5876 5867 5866 5879 5885 5890 5889 5889 5889 5891 5891 5892 5893 5894 5895 5896 5896 5898 5900
5891 5890 5890 5889 5889 5889 5889 5889 5889 5889 5889 5888 5890 5890 5891 5890 5883 5877 5875 5875 5875 5875 5876 5876 5876 5873 5870 5868 5876 5882 5883 5883 5883 5882 5885 5884 5884 5886 5888 5891 5891 5892 5894 5895
5886 5886 5885 5885 5885 5884 5884 5884 5884 5884 5883 5883 5883 5884 5884 5883 5878 5873 5871 5871 5869 5870 5869 5871 5868 5871 5873 5875 5877 5878 5877 5878 5878 5876 5874 5870 5875 5879 5883 5884 5885 5888 5889 5890
5881 5880 5879 5880 5879 5879 5881 5880 5880 5878 5878 5877 5877 5878 5877 5876 5873 5870 5867 5866 5865 5862 5863 5864 5863 5861 5864 5867 5870 5870 5870 5869 5868 5869 5859 5864 5872 5869 5876 5881 5878 5881 5882 5882
5876 5875 5874 5874 5874 5875 5875 5874 5872 5873 5873 5873 5871 5870 5870 5868 5866 5866 5865 5858 5860 5857 5855 5854 5855 5856 5854 5856 5856 5858 5859 5858 5858 5858 5860 5859 5862 5869 5872 5873 5872 5866 5868 5871
5871 5870 5870 5870 5870 5871 5871 5868 5867 5867 5868 5864 5864 5864 5863 5861 5860 5856 5853 5851 5832 5824 5852 5851 5847 5843 5846 5848 5848 5848 5849 5849 5848 5848 5850 5853 5855 5858 5858 5858 5861 5860 5854 5861
5866 5865 5865 5865 5864 5865 5866 5859 5863 5863 5861 5855 5859 5858 5857 5856 5851 5844 5845 5843 5841 5842 5841 5845 5841 5840 5837 5837 5837 5838 5838 5839 5840 5840 5841 5844 5845 5845 5846 5849 5850 5852 5852 5857
5857 5859 5859 5858 5858 5859 5856 5852 5855 5857 5854 5850 5851 5851 5850 5849 5841 5837 5836 5836 5839 5837 5836 5830 5813 5827 5829 5827 5828 5829 5828 5827 5825 5828 5829 5831 5834 5837 5838 5838 5842 5843 5845 5848
5851 5851 5852 5852 5851 5852 5846 5847 5847 5845 5845 5845 5843 5842 5842 5841 5837 5826 5827 5824 5824 5825 5826 5829 5825 5826 5801 5788 5804 5813 5816 5816 5816 5814 5817 5820 5820 5822 5824 5825 5825 5828 5831 5832
5845 5844 5844 5845 5844 5841 5840 5840 5836 5837 5837 5835 5833 5833 5831 5830 5829 5826 5817 5813 5813 5812 5815 5815 5811 5801 5800 5790 5778 5798 5803 5792 5799 5800 5804 5807 5810 5810 5812 5814 5816 5816 5817 5817
5836 5834 5835 5839 5840 5832 5831 5832 5829 5827 5827 5827 5824 5821 5819 5816 5815 5814 5811 5807 5803 5799 5796 5797 5801 5791 5790 5784 5782 5779 5782 5783 5791 5790 5789 5790 5792 5794 5796 5799 5802 5804 5805 5806
5829 5824 5825 5829 5832 5828 5825 5820 5820 5819 5817 5814 5812 5809 5806 5805 5802 5800 5797 5794 5790 5787 5784 5782 5781 5784 5778 5776 5772 5763 5764 5765 5767 5772 5774 5776 5777 5778 5780 5784 5786 5789 5791 5791
5819 5817 5816 5817 5819 5816 5817 5815 5811 5808 5807 5804 5800 5798 5794 5790 5786 5783 5781 5778 5775 5771 5768 5764 5760 5759 5760 5760 5759 5753 5749 5751 5755 5754 5754 5757 5757 5761 5763 5765 5768 5770 5773 5775
Wind_Speed
9 8 10 7 13 13 18 9 6 18 16 6 8 8 22 10 14 8 16 18 17 17 18 15 14 10 5 2 1 2 3 4 7 9 11 12 14 12 11 9 8 9 7 8
4 7 12 13 12 19 15 12 12 19 13 3 6 8 15 12 7 15 18 19 17 16 18 18 16 13 11 8 7 7 4 4 5 5 7 8 10 9 7 7 10 9 10 10
7 11 14 15 19 15 10 10 11 24 18 9 6 19 22 9 9 5 12 15 16 15 14 18 19 15 11 10 7 5 6 7 7 8 8 8 9 6 6 12 19 4 12 15
11 11 15 16 10 10 10 9 14 12 14 8 7 19 29 26 13 20 8 12 14 13 12 13 18 18 13 9 7 5 3 5 5 5 2 1 8 12 10 9 7 8 10 9
2 9 8 8 6 19 12 17 19 12 11 10 9 14 24 25 16 9 13 10 14 14 12 10 13 18 12 10 8 4 3 1 1 1 2 4 3 5 2 3 2 4 7 8
6 10 8 10 12 8 8 8 9 14 10 10 12 13 27 21 11 4 7 16 18 18 11 11 12 14 13 9 7 6 3 1 3 3 4 4 2 4 6 7 9 8 7 6
15 13 13 4 3 8 6 9 10 14 11 7 10 8 11 20 5 8 20 27 25 20 16 14 13 11 10 11 7 5 4 3 5 5 4 3 2 4 4 6 7 6 9 10
7 9 6 7 4 13 7 3 2 10 8 12 15 7 18 8 17 20 26 28 25 24 22 17 16 13 6 7 9 6 3 4 6 7 5 3 0 4 6 7 4 6 7 6
3 6 14 13 6 4 7 4 15 8 9 9 7 10 4 14 16 20 26 26 26 22 23 22 17 15 10 9 8 9 5 3 5 10 9 7 5 5 6 6 5 1 2 2
2 5 6 13 13 19 12 8 4 2 7 7 4 14 15 18 22 26 33 25 23 22 21 22 23 17 16 16 13 11 10 7 5 7 10 10 10 8 7 5 6 5 3 2
4 5 7 9 11 10 11 12 9 8 8 9 5 11 23 27 32 34 37 32 25 19 16 24 31 24 18 20 15 10 10 11 9 7 9 11 11 11 11 8 6 6 5 4
8 9 7 9 6 20 18 10 3 3 6 8 13 21 17 18 30 35 36 30 20 17 16 29 8 21 27 14 7 6 7 6 10 10 11 12 10 10 11 9 6 6 8 7
11 7 9 4 11 17 6 2 5 6 8 10 11 20 6 15 30 31 31 28 21 22 19 21 28 30 42 18 11 6 11 10 10 11 12 14 15 14 11 9 8 6 8 9
14 12 12 9 13 14 15 15 16 12 9 9 10 17 21 24 12 32 22 22 22 24 27 27 27 29 37 36 11 11 12 14 16 17 18 17 19 19 15 13 13 12 10 9
13 14 16 18 18 21 28 25 19 17 16 18 16 24 18 14 24 37 35 30 28 25 29 34 28 22 24 18 13 15 21 22 21 23 22 23 21 21 20 20 18 16 15 13
15 16 17 17 18 19 22 20 18 17 18 19 19 20 29 36 31 39 30 23 27 25 29 33 34 30 23 22 26 24 22 25 26 27 33 35 30 23 23 22 20 20 18 15
18 18 18 17 19 19 19 13 13 17 15 18 18 18 17 20 30 33 33 26 26 30 25 30 36 39 32 31 29 29 28 32 32 33 43 41 33 33 29 31 29 26 24 20
18 17 17 17 18 16 12 15 22 19 19 20 24 25 25 27 31 24 20 34 23 27 30 31 30 31 39 40 35 34 33 35 37 38 39 41 36 40 32 28 39 39 34 24
18 18 18 17 17 15 14 18 20 16 15 25 25 26 27 30 28 22 27 30 31 17 30 33 34 37 32 31 36 43 43 42 45 45 44 47 45 42 37 35 31 35 29 20
18 20 20 19 20 17 14 30 22 19 23 32 26 28 29 30 31 35 35 35 30 35 30 33 38 34 38 39 38 38 41 48 50 51 50 48 45 42 37 33 40 32 20 24
25 20 21 22 23 21 23 33 25 24 33 33 30 29 29 30 36 40 41 42 33 28 26 37 36 39 39 43 45 45 45 46 48 49 51 50 48 47 47 44 38 35 36 37
25 26 24 22 24 23 32 33 31 31 31 30 32 33 32 32 35 42 43 46 45 44 43 42 47 32 55 49 47 47 48 47 48 47 45 47 45 43 41 41 44 46 48 50
27 28 27 26 26 30 34 34 36 35 32 33 35 35 35 36 37 39 45 48 49 49 46 48 53 56 57 54 45 39 40 42 49 48 50 46 46 45 44 44 44 44 46 45
27 31 31 26 25 34 35 34 36 38 35 33 35 39 39 41 43 45 45 47 49 52 54 52 51 58 58 59 63 63 62 48 44 52 55 53 52 51 49 47 45 44 43 42
26 34 32 26 24 31 36 40 38 37 37 37 37 38 41 42 44 46 48 49 51 52 53 55 56 56 59 58 61 67 65 62 62 58 58 58 58 57 55 51 50 48 45 44
29 33 35 33 31 35 35 35 36 35 35 37 40 41 44 46 47 46 45 44 45 47 49 52 54 56 56 60 62 67 70 70 66 65 65 63 62 60 58 56 53 52 49 46
Wind_Direction
192 239 273 269 268 315 323 318 301 282 287 12 337 333 307 317 336 353 358 15 24 28 30 26 24 16 341 349 316 247 219 197 246 244 235 227 236 238 226 223 231 244 245 259
204 251 286 267 268 281 282 288 285 291 282 50 343 309 272 271 331 337 346 4 7 20 25 22 16 6 360 338 291 283 276 230 194 220 222 212 221 222 218 242 228 227 250 253
239 239 244 274 259 275 298 279 282 299 325 7 279 269 273 275 94 7 339 341 2 359 13 19 13 2 356 353 342 300 261 255 246 259 262 252 237 215 236 241 248 238 258 263
267 258 252 272 296 307 289 269 261 251 262 274 256 294 304 305 309 297 326 314 323 353 348 1 11 4 356 356 360 5 330 265 261 273 286 238 234 225 221 215 272 309 281 277
231 274 278 273 294 253 261 246 265 303 284 268 268 277 277 287 303 265 327 319 316 320 345 341 357 7 354 354 353 357 348 316 227 212 89 102 98 64 265 308 138 22 321 307
325 261 306 238 254 277 281 303 359 360 348 282 285 271 280 282 306 90 269 304 309 295 322 321 334 360 356 348 355 345 342 287 192 153 122 106 68 67 330 6 8 24 360 322
328 328 313 311 129 1 317 339 308 284 282 321 260 265 277 51 107 241 290 300 302 284 286 300 312 335 353 348 354 353 323 275 217 178 150 122 40 38 30 354 5 4 20 24
319 271 300 285 284 199 199 250 260 295 267 266 299 280 294 300 254 280 296 310 290 269 272 277 287 300 328 352 341 342 321 276 223 218 200 173 184 350 360 3 11 21 38 42
22 249 291 321 301 225 229 164 271 258 269 290 276 307 161 184 254 279 293 303 295 264 259 254 263 275 271 299 306 307 303 240 241 233 234 240 246 290 326 343 337 327 7 339
201 270 292 298 19 357 320 267 21 286 277 295 297 262 247 249 268 291 289 293 305 263 247 244 251 253 261 274 279 276 284 272 233 242 248 254 262 275 289 303 311 282 267 257
252 300 215 278 336 240 260 279 265 261 260 261 280 285 279 273 273 280 290 297 300 250 224 270 251 253 251 260 264 266 271 278 265 254 261 264 265 271 274 282 293 274 240 227
250 245 281 265 296 288 320 280 293 274 257 261 264 260 199 285 284 295 294 295 293 236 228 259 250 245 244 222 237 254 230 255 276 272 271 269 269 268 270 264 261 246 222 203
276 256 248 27 211 269 338 180 253 298 279 271 275 291 4 295 291 290 298 292 282 249 241 242 256 264 258 216 167 274 249 248 264 280 271 266 257 258 257 246 248 251 232 216
271 270 263 247 248 254 256 276 282 267 258 252 229 298 311 294 295 299 311 300 278 256 253 252 265 281 294 273 270 275 275 259 255 263 271 269 255 250 249 242 229 224 227 220
275 267 260 256 255 244 250 263 272 266 262 253 234 226 230 246 284 281 291 293 281 267 256 260 267 280 282 314 258 244 260 257 257 269 274 253 247 239 242 242 232 212 205 203
287 279 273 268 266 268 272 271 276 273 269 263 265 251 242 235 259 270 285 284 286 280 274 259 259 265 255 244 253 252 251 261 261 265 260 240 229 230 232 225 231 227 222 227
284 284 280 274 273 270 278 286 285 268 261 261 264 269 265 266 264 269 289 284 279 281 275 268 268 263 262 261 254 250 260 264 268 269 278 276 295 297 285 249 235 231 231 234
282 282 283 284 283 283 277 264 273 271 269 271 267 266 269 262 268 280 272 288 282 279 277 277 274 270 265 265 269 268 265 261 264 269 275 287 290 286 281 278 273 272 240 230
273 277 281 284 283 288 293 270 264 286 282 270 269 272 269 269 274 272 266 258 284 304 274 275 271 271 280 273 268 269 268 267 270 273 275 277 281 282 284 288 290 280 272 273
268 273 277 279 278 275 256 265 284 290 286 270 271 274 279 282 272 267 274 275 273 272 265 267 271 274 275 273 270 268 264 263 266 269 271 274 277 284 286 281 280 283 268 259
283 270 273 275 276 276 263 272 283 272 268 280 286 284 279 276 279 280 279 279 277 279 274 281 248 275 264 268 270 269 267 266 266 268 270 271 272 271 272 275 275 272 270 267
274 278 280 276 272 268 271 280 280 280 280 286 285 281 280 277 277 278 278 280 282 280 277 274 270 261 276 253 256 264 268 265 263 263 265 270 271 271 271 271 274 273 271 272
272 271 272 271 275 281 284 283 285 288 291 289 287 286 280 277 275 273 276 280 283 281 277 278 279 275 274 274 270 259 256 268 258 267 269 267 265 266 267 267 266 267 269 271
269 272 266 266 275 279 284 287 289 290 295 291 282 282 284 282 280 280 280 279 279 279 279 277 272 272 275 276 273 275 268 259 268 263 270 271 271 269 268 268 269 268 267 268
268 272 279 278 267 270 275 281 289 290 291 290 289 284 283 283 283 282 280 279 279 278 277 275 275 273 271 268 268 272 272 272 272 269 266 267 269 268 269 270 270 269 271 271
267 274 277 279 280 279 280 286 288 289 290 290 289 291 293 295 293 292 291 288 282 278 277 276 275 272 269 267 264 265 266 266 266 268 269 268 268 269 270 272 272 273 271 269